GW1952 Weather Reports


Display with metric or nautical units.
time (UTC)temp
F
wind
direction
speed
MPH
gust
MPH
rain 1hr
in
rain 24hr
in
rain mn
in
humidity
%
barometer
mb
20260504100103 47 337 3.0 8.0 0.00 0.00 0.00 59 1016.0
20260504090108 49 42 7.0 13.0 0.00 0.00 0.00 54 1015.5
20260504081554 50 47 9.0 16.0 0.00 0.00 0.00 49 1014.9
20260504044558 58 51 6.0 13.0 0.00 0.02 0.00 36 1009.3
20260504043054 59 33 7.0 14.0 0.00 0.02 0.00 35 1008.9
20260504041552 60 71 6.0 12.0 0.00 0.02 0.00 34 1008.6
20260504040112 60 41 5.0 13.0 0.00 0.02 0.00 33 1008.4
20260504034557 62 34 6.0 12.0 0.00 0.02 0.00 30 1007.9
20260504033053 63 51 6.0 13.0 0.00 0.02 0.00 26 1007.6
20260504031552 66 50 6.0 13.0 0.00 0.02 0.00 22 1007.4
20260504030051 65 68 3.0 6.0 0.00 0.02 0.00 23 1007.0
20260504024555 66 61 3.0 6.0 0.00 0.02 0.00 23 1007.1
20260504023050 67 48 4.0 10.0 0.00 0.02 0.00 22 1006.9
20260504021553 69 13 3.0 8.0 0.00 0.02 0.00 22 1007.0
20260504020054 70 26 3.0 10.0 0.00 0.02 0.00 21 1006.9
20260504014553 72 347 4.0 10.0 0.00 0.02 0.00 20 1006.9
20260504013121 73 13 5.0 13.0 0.00 0.02 0.00 19 1006.9
20260504011553 74 16 4.0 15.0 0.00 0.02 0.00 17 1006.9
20260504010105 75 333 7.0 12.0 0.00 0.02 0.00 17 1006.9
20260504004608 75 331 8.0 15.0 0.00 0.02 0.00 16 1007.1
20260504003053 75 324 7.0 13.0 0.00 0.02 0.00 16 1007.2
20260504001554 75 344 10.0 15.0 0.00 0.02 0.00 16 1007.4
20260504000123 75 290 9.0 16.0 0.00 0.02 0.00 17 1007.4
20260503234553 75 306 12.0 20.0 0.00 0.02 0.00 16 1007.6
20260503233056 75 323 11.0 25.0 0.00 0.02 0.00 16 1007.6
20260503231551 76 286 15.0 24.0 0.00 0.02 0.00 16 1007.7
20260503230058 76 284 11.0 21.0 0.00 0.02 0.00 16 1007.9
20260503224552 75 299 10.0 22.0 0.00 0.02 0.00 17 1008.0
20260503223050 76 276 14.0 28.0 0.00 0.02 0.00 15 1008.1
20260503221554 75 262 13.0 21.0 0.00 0.02 0.00 16 1008.3
20260503214550 74 277 13.0 22.0 0.00 0.02 0.00 17 1008.6
20260503213053 73 266 9.0 17.0 0.00 0.02 0.00 18 1008.9
20260503211552 74 310 14.0 23.0 0.00 0.02 0.00 17 1009.3
20260503210050 74 319 10.0 24.0 0.00 0.02 0.00 17 1009.5
20260503204552 73 285 17.0 26.0 0.00 0.02 0.00 17 1009.9
20260503203056 73 292 13.0 26.0 0.00 0.02 0.00 18 1010.0
20260503201552 73 290 16.0 30.0 0.00 0.02 0.00 17 1010.1
20260503200056 73 289 18.0 26.0 0.00 0.02 0.00 18 1010.4
20260503194556 73 271 15.0 25.0 0.00 0.02 0.00 19 1010.6
20260503193052 72 281 15.0 25.0 0.00 0.02 0.00 22 1010.6
20260503191551 72 273 10.0 26.0 0.00 0.02 0.00 22 1010.9
20260503190048 71 288 9.0 23.0 0.00 0.02 0.00 24 1011.1
20260503184603 70 280 12.0 23.0 0.00 0.02 0.00 23 1011.3
20260503183057 70 283 13.0 23.0 0.00 0.02 0.00 24 1011.6
20260503181550 69 321 12.0 21.0 0.00 0.02 0.00 25 1011.8
20260503174551 68 261 11.0 16.0 0.00 0.02 0.00 28 1012.2
20260503173056 67 310 8.0 16.0 0.00 0.02 0.00 28 1012.3
20260503171547 67 273 10.0 16.0 0.00 0.02 0.00 33 1012.4
20260503160110 62 269 12.0 17.0 0.00 0.02 0.00 40 1012.4